Laredo, TX

7:08 AM CDT on August 19, 2017 (GMT -0500)
Laredo International

Weather History for KLRD - July, 2013

Change the Weather History Date:

Saturday, July 6, 2013

  Actual Average Record
Temperature  
Mean Temperature 89 °F 88 °F  
Max Temperature 102 °F 99 °F 112 °F (1998)
Min Temperature 75 °F 77 °F 63 °F (1940)
Degree Days  
Heating Degree Days 0 0  
Month to date heating degree days 0 0  
Since 1 June heating degree days 0 0  
Since 1 July heating degree days 0 0  
Cooling Degree Days 24 23  
Month to date cooling degree days 134 138  
Year to date cooling degree days 2041 1941  
Since 1 June cooling degree days 840 798  
Growing Degree Days 37 (Base 50)    
Moisture  
Dew Point 67 °F    
Average Humidity 55    
Maximum Humidity 87    
Minimum Humidity 24    
Precipitation  
Precipitation 0.00 in 0.08 in 1.45 in (1924)
Month to date precipitation 0.00 0.48  
Year to date precipitation 9.09 9.58  
Sea Level Pressure  
Sea Level Pressure 29.84 in    
Wind  
Wind Speed 10 mph (ESE)    
Max Wind Speed 28 mph    
Max Gust Speed 32 mph    
Visibility 10 miles    
Events      
T = Trace of Precipitation, MM = Missing Value Source: NWS Daily Summary

Daily Weather History Graph

Daily Weather History Graph

Search for Another Location

Airport or City:

Trip Planner

Search our weather history database for the weather conditions in past years. The results will help you decide how hot, cold, wet, or windy it might be!

Date:

Astronomy

Jul. 06, 2013 Rise Set
Actual Time 6:48 AM CDT 8:36 PM CDT
Civil Twilight 6:21 AM CDT 9:03 PM CDT
Nautical Twilight 5:50 AM CDT 9:35 PM CDT
Astronomical Twilight 5:16 AM CDT 10:08 PM CDT
Moon 5:31 AM CDT (7/6) 7:24 PM CDT (7/6)
Length of Visible Light 14h 41m
Length of Day
13h 48m
Waning Crescent, 2% of the Moon is Illuminated
Jul 6
Waning Crescent
Jul 8
New
Jul 15
First Quarter
Jul 22
Full
Jul 29
Last Quarter

Hourly Weather History & Observations

Time (CDT) Temp. Heat Index Dew Point Humidity Pressure Visibility Wind Dir Wind Speed Gust Speed Precip Events Conditions
12:56 AM 81.9 °F 84.2 °F 66.9 °F 60% 29.90 in 10.0 mi SE 13.8 mph - N/A   Clear
1:56 AM 79.9 °F - 68.0 °F 67% 29.89 in 10.0 mi ESE 11.5 mph - N/A   Clear
2:56 AM 79.0 °F - 68.9 °F 71% 29.88 in 10.0 mi ESE 8.1 mph - N/A   Clear
3:56 AM 77.0 °F - 70.0 °F 79% 29.87 in 10.0 mi East 6.9 mph - N/A   Clear
4:56 AM 75.9 °F - 70.9 °F 84% 29.86 in 10.0 mi East 6.9 mph - N/A   Clear
5:56 AM 75.9 °F - 70.9 °F 84% 29.86 in 10.0 mi East 6.9 mph - N/A   Partly Cloudy
6:56 AM 74.8 °F - 70.9 °F 87% 29.86 in 10.0 mi East 6.9 mph - N/A   Clear
7:56 AM 77.0 °F - 72.0 °F 84% 29.88 in 10.0 mi East 8.1 mph - N/A   Clear
8:56 AM 81.9 °F 87.0 °F 72.9 °F 74% 29.88 in 10.0 mi ESE 10.4 mph - N/A   Clear
9:56 AM 83.8 °F 88.6 °F 70.9 °F 65% 29.89 in 10.0 mi East 3.5 mph - N/A   Unknown
10:56 AM 88.0 °F 91.4 °F 68.0 °F 51% 29.88 in 10.0 mi Variable 5.8 mph - N/A   Partly Cloudy
11:56 AM 91.9 °F 94.5 °F 65.8 °F 42% 29.88 in 10.0 mi SE 6.9 mph - N/A   Partly Cloudy
12:56 PM 92.8 °F 94.3 °F 63.9 °F 38% 29.87 in 10.0 mi SE 8.1 mph 16.1 mph N/A   Unknown
1:56 PM 95.0 °F 95.6 °F 61.9 °F 33% 29.85 in 10.0 mi Variable 3.5 mph - N/A   Clear
2:56 PM 97.9 °F 98.3 °F 61.0 °F 29% 29.81 in 10.0 mi Variable 6.9 mph - N/A   Clear
3:56 PM 99.9 °F 100.4 °F 59.9 °F 27% 29.79 in 10.0 mi East 5.8 mph 16.1 mph N/A   Partly Cloudy
4:56 PM 100.9 °F 100.5 °F 57.9 °F 24% 29.76 in 10.0 mi SE 9.2 mph - N/A   Clear
5:56 PM 100.9 °F 101.0 °F 59.0 °F 25% 29.75 in 10.0 mi East 8.1 mph - N/A   Partly Cloudy
6:56 PM 95.9 °F 98.5 °F 64.9 °F 36% 29.76 in 10.0 mi ESE 18.4 mph 26.5 mph N/A   Partly Cloudy
7:56 PM 91.9 °F 95.4 °F 66.9 °F 44% 29.79 in 10.0 mi ESE 17.3 mph - N/A   Scattered Clouds
8:56 PM 90.0 °F 93.6 °F 68.0 °F 48% 29.81 in 10.0 mi ESE 16.1 mph - N/A   Partly Cloudy
9:56 PM 88.0 °F 92.1 °F 68.9 °F 53% 29.83 in 10.0 mi ESE 13.8 mph - N/A   Unknown
10:56 PM 86.9 °F 91.7 °F 70.0 °F 57% 29.86 in 10.0 mi SE 15.0 mph - N/A   Unknown
11:56 PM 84.9 °F 90.1 °F 70.9 °F 63% 29.86 in 10.0 mi ESE 13.8 mph - N/A   Unknown